Weather Roundup
Issued by NWS

Home | Current Version | Previous Version | Graphics & Text | Print | Product List | Glossary Off
Versions: 1 2 3 4 5 6 7 8 9 10 11 12 13 14 15 16 17 18 19 20 21 22 23 24 25 26 27 28 29 30 31 32 33 34 35 36 37 38 39 40 41 42 43 44 45 46 47 48 49 50

000
NZUS93 KARX 050059
HRRWXR

CURRENT HOURLY OBSERVATIONS ACROSS
MUCH OF THE UPPER MISSISSIPPI VALLEY
NATIONAL WEATHER SERVICE LA CROSSE WI
700 PM CST WED MAR 04 2015


...SOUTHEAST MINNESOTA...


CITY           SKY/WX    TMP DP  RH WIND       PRES   REMARKS
ROCHESTER      CLEAR      3  -6  66 NW15      30.27R WCI -16
ROCHESTER/MAYO FAIR       6  -7  54 W17       30.28R WCI -13
WINONA         PTCLDY    12  -2  52 W10G16    30.32R WCI  -1
AUSTIN         CLEAR      3  -4  72 NW13G18   30.29R WCI -14
ALBERT LEA     CLEAR      5  -4  66 NW12G17   30.31R WCI -11
DODGE CENTER   PTCLDY     3  -2  78 NW13G21   30.27R WCI -14
PRESTON        CLEAR      4  -5  67 NW10      30.28R WCI -12
OWATONNA       PTCLDY     3  -8  60 NW18G25   30.31R WCI -17
FARIBAULT      CLEAR      3  -8  60 W10       30.32R WCI -12
$$

...ELSEWHERE IN MINNESOTA...


CITY           SKY/WX    TMP DP  RH WIND       PRES   REMARKS
MINNEAPOLIS    PTCLDY     3 -10  54 NW15      30.33R WCI -16
INTNL FALLS    CLEAR     -7 -16  65 W3        30.24R
DULUTH         CLEAR     -1 -16  48 W8        30.20R WCI -15
RED WING       CLEAR      7  -9  47 NW8       30.31R WCI  -6
REDWOOD FALLS  CLEAR      2  -7  66 NW13      30.38R WCI -15
MANKATO        MOCLDY     3  -4  72 NW17G23   30.34R WCI -17
FAIRMONT       CLEAR      5  -8  56 NW14      30.33R WCI -12
$$

...SOUTHWEST WISCONSIN...


CITY           SKY/WX    TMP DP  RH WIND       PRES   REMARKS
LA CROSSE      CLEAR      9  -4  55 W8        30.31R WCI  -3
PRAIRIE DU CHI FAIR      11  -3  55 W9        30.31R WCI  -2
BOSCOBEL       PTCLDY    12  -4  48 W7        30.31R WCI   1
LONE ROCK      NOT AVBL
PLATTEVILLE    PTCLDY    10  -2  60 W10       30.25S WCI  -4
FORT MC COY    PTCLDY    10  -5  51 W5        30.27R WCI   2
VIROQUA        FAIR       8  -6  54 W12       30.22R WCI  -8
WIS DELLS      NOT AVBL
$$

...ELSEWHERE IN WISCONSIN...


CITY           SKY/WX    TMP DP  RH WIND       PRES   REMARKS
MILWAUKEE      MOCLDY    16  -5  39 NW8       30.22R WCI   5
MADISON        PTCLDY    12  -6  44 NW7       30.23R WCI   1
GREEN BAY      CLEAR      7  -8  50 W10       30.23R WCI  -8
EAU CLAIRE     NOT AVBL
BLACK RVR FLS  FAIR       8  -8  47 W3        30.26R
MEDFORD        CLEAR      2 -13  49 NW7       30.17R WCI -10
WAUSAU         CLEAR      4 -12  48 W9        30.17R WCI -10
WIS RAPIDS     CLEAR      7 -10  46 N6        30.25R WCI  -3
MARSHFIELD     CLEAR      4 -11  50 NW12      30.21R WCI -12
RICE LAKE      FAIR       3 -13  46 NW7       30.27R WCI  -9
$$

...NORTHEAST IOWA...


CITY           SKY/WX    TMP DP  RH WIND       PRES   REMARKS
DECORAH        PTCLDY     9  -2  61 NW9       30.26S WCI  -5
MASON CITY     CLEAR      6  -3  66 NW13      30.34R WCI -10
CHARLES CITY   MOCLDY     7   0  72 NW8       30.31R WCI  -6
OELWEIN        PTCLDY     7   0  72 NW10      30.29R WCI  -8
$$

...ELSEWHERE IN IOWA...


CITY           SKY/WX    TMP DP  RH WIND       PRES   REMARKS
DES MOINES     PTCLDY    19   3  49 NW15      30.34R WCI   5
IOWA CITY      CLOUDY    16   4  59 NW7       30.32R WCI   6
FORT DODGE     MOCLDY    12   1  62 NW3       30.36R
$$

...NORTHERN ILLINOIS...


CITY           SKY/WX    TMP DP  RH WIND       PRES   REMARKS
CHICAGO-OHARE  MOCLDY    16  -3  43 NW13      30.23R WCI   2
CHICAGO-MIDWAY MOCLDY    20   0  41 NW14      30.23F WCI   7
MOLINE         PTCLDY    16   2  54 NW3       30.32R
ROCKFORD       PTCLDY    12  -2  53 W6        30.26F WCI   3
PEORIA         MOCLDY    18   2  49 CALM      30.32R
$$

NOTE: "FAIR" INDICATES FEW OR NO CLOUDS BELOW 12,000 FEET WITH NO
SIGNIFICANT WEATHER AND/OR OBSTRUCTIONS TO VISIBILITY. WIND
SPEEDS ARE IN MILES-PER-HOUR.



USA.gov is the U.S. government's official web portal to all federal, state and local government web resources and services.